SCP
1 2 2 2 1 1 1 1 1 1 1 1 1 1 0 0 0 0 0 0 0 0 0 0 0 0 0 0 0 0 0 0 0 0 0 0 0 0 0 0 0 0 0
1 2 2 2 1 1 1 1 1 1 1 1 1 1 0 0 0 0 0 0 0 0 0 0 0 0 0 0 0 0 0 0 0 0 0 0 0 0 0 0 0 0 0
2 2 2 1 1 1 1 1 1 1 1 1 1 1 0 0 0 0 0 0 0 0 0 0 0 0 0 0 0 0 0 0 0 0 0 0 0 0 0 0 0 0 0
2 2 2 1 1 1 1 1 1 1 1 1 1 1 0 0 0 0 0 0 0 0 0 0 0 0 0 0 0 0 0 0 0 0 0 0 0 0 0 0 0 0 0
2 2 2 1 1 1 1 1 1 1 1 1 1 1 0 0 0 0 0 0 0 0 0 0 0 0 0 0 0 0 0 0 0 0 0 0 0 0 0 0 0 0 0
2 2 2 2 1 1 1 1 1 1 1 1 1 1 1 0 0 0 0 0 0 0 0 0 0 0 0 0 0 0 0 0 0 0 0 0 0 0 0 0 0 0 0
2 2 2 2 1 1 1 1 1 1 1 1 1 1 1 0 0 0 0 0 0 0 0 0 0 0 0 0 0 0 0 0 0 0 0 0 0 0 0 0 0 0 0
2 2 2 2 1 1 1 1 1 1 1 1 1 1 1 0 0 0 0 0 0 0 0 0 0 0 0 0 0 0 0 0 0 0 0 0 0 0 0 0 0 0 0
2 2 2 2 1 1 1 1 1 1 1 1 1 1 0 0 0 0 0 0 0 0 0 0 0 0 0 0 0 0 0 0 0 0 0 0 0 0 0 0 0 0 0
2 2 2 2 1 1 1 1 1 1 1 1 1 1 0 0 0 1 1 1 1 0 0 0 0 0 0 0 0 0 0 0 0 0 0 0 0 0 0 0 0 0 0
3 3 2 2 2 2 1 1 1 1 1 1 1 1 1 1 1 1 1 1 1 1 1 0 0 1 1 0 0 0 0 0 0 0 0 1 1 0 0 0 0 0 0
3 3 3 3 2 2 2 2 2 1 1 1 1 1 1 1 1 1 1 1 2 1 1 1 1 1 1 1 1 0 0 0 0 0 1 1 1 0 0 0 0 0 0
3 3 3 3 3 3 2 2 2 2 1 1 1 1 1 1 1 1 2 2 2 2 1 1 1 1 1 1 1 1 1 1 0 0 1 1 1 1 1 0 1 1 1
3 3 4 4 4 3 3 3 3 2 2 2 2 2 1 1 1 1 2 2 2 1 1 1 1 2 2 2 1 1 1 1 1 1 1 1 1 1 1 1 1 1 1
3 3 4 3 3 4 4 3 3 3 2 2 2 2 2 1 1 1 2 2 2 2 2 2 2 1 2 2 1 1 1 1 1 1 1 1 1 1 1 1 1 1 1
3 3 3 3 3 4 4 4 3 3 2 2 2 2 2 2 1 1 2 2 2 2 2 2 1 1 1 1 1 1 1 1 1 1 1 1 1 1 1 1 1 1 1
3 4 3 3 3 3 4 4 4 3 3 2 2 2 2 2 2 2 2 1 1 1 1 1 1 1 1 1 1 1 1 1 1 1 1 1 1 1 1 1 1 1 1
3 3 3 3 3 3 3 3 4 4 3 2 2 2 2 2 2 2 2 1 1 1 1 1 1 1 1 1 1 1 1 1 1 1 1 1 1 1 1 1 1 1 1
3 3 3 3 2 3 3 4 4 4 3 3 2 2 2 2 2 2 2 1 1 1 1 1 1 1 1 1 1 1 1 1 1 1 1 1 1 1 1 1 1 1 1
3 3 3 3 2 3 3 4 4 3 3 3 2 2 2 2 2 1 1 1 1 1 1 2 1 1 1 1 1 1 1 1 1 1 1 1 1 1 1 1 2 2 2
4 3 3 3 3 2 3 3 3 3 2 2 3 3 3 2 2 1 1 1 1 1 1 1 1 1 1 1 1 1 1 1 1 1 1 1 1 1 1 1 2 2 2
4 4 4 3 3 2 2 2 2 2 2 2 2 3 2 2 1 1 1 1 1 1 1 1 1 1 1 1 1 1 1 1 1 1 1 1 1 1 1 1 2 2 2
4 4 4 3 3 2 2 2 2 1 1 1 2 2 1 1 1 1 1 1 1 1 1 1 1 1 1 1 1 1 0 0 1 1 1 1 1 1 1 1 1 1 1
5 5 5 4 3 2 2 2 2 1 1 1 1 1 1 1 1 1 1 1 1 0 0 0 1 1 1 1 1 1 0 0 0 0 0 0 1 1 1 1 1 1 1
5 6 6 4 3 2 2 2 2 1 1 1 1 1 0 0 0 0 0 0 0 0 0 0 0 0 0 0 0 0 0 0 0 0 0 0 0 0 1 1 1 1 1
5 6 7 5 3 2 2 1 1 1 1 1 1 0 0 0 0 0 0 0 0 0 0 0 0 0 0 0 0 0 0 0 0 0 0 1 1 0 0 1 1 1 1
Wind_Speed
13 16 17 15 14 14 14 14 14 14 14 14 14 13 12 12 11 10 10 10 9 9 9 9 9 9 9 9 9 9 9 10 10 10 11 11 11 11 11 11 11 13 14
16 18 17 15 15 14 14 14 14 14 14 14 13 13 12 11 11 10 9 9 9 9 9 9 10 9 9 10 9 9 9 9 10 10 11 11 11 10 9 7 7 12 13
17 18 18 14 15 14 14 14 13 13 13 13 13 12 12 11 10 9 9 9 9 9 9 9 9 9 9 9 9 9 9 9 9 9 9 9 12 9 9 10 13 13 12
18 17 17 17 15 15 14 13 13 13 13 13 12 12 11 10 9 9 9 8 8 8 8 9 9 9 8 8 8 8 9 9 7 7 6 8 10 11 10 11 12 12 12
17 16 17 17 16 15 14 13 13 13 12 12 12 11 10 10 9 9 8 8 8 8 8 8 8 8 8 7 7 7 8 7 5 7 6 7 9 11 10 11 11 11 12
17 16 18 16 16 15 14 13 12 12 12 11 10 10 9 9 8 8 7 7 7 7 7 7 7 7 7 7 6 6 6 5 8 5 6 6 9 10 10 10 11 11 11
17 16 18 16 15 15 14 13 12 12 11 10 10 9 8 8 8 7 7 6 6 6 7 7 6 6 6 6 5 5 4 3 3 5 5 6 9 10 9 10 10 10 10
16 16 17 16 15 14 13 13 12 11 11 10 9 9 8 7 6 6 6 6 6 6 6 6 5 5 5 5 4 3 2 6 3 5 5 6 11 8 9 9 10 10 10
14 14 15 15 14 13 12 12 11 10 10 10 9 8 7 6 6 5 5 5 5 5 5 5 5 5 4 4 3 3 1 5 5 3 4 6 10 8 8 9 9 9 9
13 13 13 13 13 12 12 12 10 10 9 8 8 7 7 6 6 6 7 5 4 4 4 4 4 4 4 3 2 2 1 6 5 4 3 8 10 9 9 9 9 9 9
12 11 12 12 10 10 10 11 11 10 8 8 8 8 7 7 6 7 4 5 4 4 4 4 4 4 4 5 4 3 5 5 2 1 2 11 9 8 9 9 9 9 9
13 11 9 10 10 9 7 8 6 7 7 6 5 6 5 3 1 1 7 4 4 4 5 5 4 6 7 5 7 7 5 5 3 2 5 10 8 8 9 10 10 10 10
12 11 10 9 8 8 5 6 4 3 4 5 5 4 3 3 3 3 3 5 5 6 5 6 6 4 4 2 3 4 4 4 3 2 5 9 7 8 10 10 11 11 11
11 10 9 8 7 6 5 4 4 4 3 3 4 4 3 3 3 2 2 2 3 2 3 3 3 3 3 4 4 4 5 4 3 3 3 8 6 8 10 11 12 12 12
10 9 8 8 8 6 5 4 4 3 3 3 2 3 3 2 3 2 2 2 3 2 3 3 3 3 4 4 4 5 5 5 5 5 2 7 7 8 10 11 12 14 14
10 9 8 8 8 7 5 4 2 2 2 2 2 2 2 2 2 2 2 2 2 2 2 2 3 3 3 3 5 5 5 6 5 5 5 5 9 9 9 11 12 14 15
9 8 7 7 7 6 5 4 3 2 2 2 2 2 2 2 2 2 2 2 1 1 2 3 3 3 4 4 5 6 6 6 6 6 6 5 5 9 11 11 12 14 15
9 8 6 6 7 6 5 4 2 2 2 2 2 2 2 2 2 2 1 1 1 2 2 2 3 3 3 4 4 4 4 4 7 7 6 6 5 5 9 12 12 13 14
8 8 7 6 6 6 5 4 4 3 2 2 2 2 2 2 1 1 0 0 1 1 2 3 1 2 2 3 4 4 4 4 5 7 6 7 6 6 6 8 12 12 14
8 8 7 7 6 6 5 5 4 4 3 3 3 3 3 3 2 1 1 1 1 1 1 1 1 1 3 3 5 4 4 4 5 5 6 6 5 7 8 7 6 9 14
8 9 9 8 8 6 4 4 4 4 4 4 3 4 3 3 2 0 1 1 1 0 1 1 2 2 2 2 4 4 4 5 4 4 4 4 6 6 6 6 6 6 6
9 9 9 9 7 6 4 3 2 3 3 4 4 4 3 3 2 2 2 1 1 0 0 1 2 3 2 1 4 5 4 4 4 2 2 3 3 4 5 6 6 6 6
9 9 7 7 7 6 6 5 5 4 4 5 5 4 3 3 2 3 2 2 1 1 2 1 2 3 3 2 2 5 4 3 2 2 1 2 2 3 3 4 5 6 7
10 9 8 8 7 6 6 5 6 4 4 4 3 3 4 3 3 3 2 2 2 2 2 1 2 2 3 3 1 2 4 5 5 2 2 2 1 3 3 4 4 5 6
10 9 9 8 8 7 5 6 5 4 4 4 3 5 3 4 3 3 3 2 1 1 3 3 2 3 3 4 3 2 2 3 5 6 5 3 3 3 2 3 3 4 4
11 10 9 9 8 7 6 6 4 5 4 4 4 4 3 3 3 3 2 2 1 2 1 1 2 2 3 4 4 4 4 4 4 5 6 6 5 4 4 4 5 3 3
Wind_Direction
153 142 142 147 144 142 140 140 139 138 138 136 135 133 131 128 124 122 118 115 110 106 103 101 99 99 99 100 101 101 102 105 108 109 111 111 113 115 118 128 139 114 115
147 141 143 146 145 143 140 138 136 136 137 136 135 134 133 131 128 124 121 117 112 106 103 102 101 98 98 98 98 101 104 107 111 117 124 123 116 116 119 115 84 108 123
146 142 148 147 146 142 139 137 136 135 135 135 135 135 134 133 131 127 123 118 113 108 104 102 101 99 98 98 98 101 105 110 116 133 165 140 120 117 111 103 103 119 122
146 147 152 146 147 144 141 140 138 137 135 135 136 137 135 133 131 128 124 120 115 112 110 106 104 101 99 99 100 102 106 113 129 180 171 120 123 118 121 119 121 125 125
148 150 142 150 148 146 144 142 141 139 137 137 137 137 135 133 132 129 125 123 120 118 115 110 107 104 102 101 101 103 107 119 164 214 104 110 112 121 127 128 128 128 127
152 151 142 153 150 148 147 145 143 141 139 138 137 137 136 133 132 130 128 126 123 121 118 112 108 106 105 104 104 107 114 148 216 127 119 124 116 129 134 134 131 129 129
154 148 145 154 152 152 151 149 147 144 143 142 141 139 137 133 131 131 131 128 123 119 117 117 113 108 105 103 104 110 126 219 250 110 128 115 109 132 139 136 134 133 133
152 150 143 153 156 155 154 153 152 150 150 149 149 147 144 141 138 136 134 134 131 127 125 126 124 117 107 97 95 101 141 261 189 128 130 117 114 141 146 141 140 139 138
155 149 150 158 160 159 157 157 157 156 156 157 155 154 153 152 152 147 142 141 141 140 142 142 141 133 120 104 95 98 123 291 270 137 138 117 130 154 156 152 149 148 148
155 153 155 160 161 165 163 162 162 161 161 162 163 163 164 170 174 169 177 158 160 160 162 162 161 155 144 131 122 124 212 255 239 160 144 120 142 165 166 163 162 161 160
160 158 161 158 163 170 165 156 168 167 169 176 178 174 190 195 179 180 151 144 180 185 183 179 178 173 184 180 185 205 239 245 213 182 127 115 156 177 177 174 176 173 172
164 163 167 162 167 171 166 155 177 180 171 197 179 183 198 177 189 196 117 175 206 208 207 197 193 197 225 205 184 209 238 242 245 196 122 132 170 191 190 185 185 184 184
166 165 167 166 173 169 163 165 177 181 171 191 182 192 197 194 195 206 184 183 202 210 217 189 206 217 222 240 258 242 267 276 270 248 129 145 182 202 202 196 194 192 193
166 167 166 166 169 173 175 170 178 179 181 190 175 208 198 208 221 210 220 226 217 218 225 236 229 227 235 231 240 260 262 260 272 285 127 152 194 211 212 206 202 200 199
165 167 166 170 168 170 172 186 178 186 190 184 185 200 226 226 229 225 230 235 242 232 224 235 248 240 235 230 238 241 255 264 274 273 194 167 204 221 222 217 209 206 205
167 165 161 172 167 170 174 174 173 185 179 181 171 181 223 235 234 226 220 226 241 252 259 249 241 245 246 242 240 241 251 258 253 260 262 198 200 218 227 227 219 214 211
160 151 157 164 165 169 170 170 163 166 179 169 157 168 189 203 210 229 231 234 236 242 241 248 245 242 238 236 239 240 243 251 254 252 260 265 228 210 217 226 223 218 217
151 149 158 156 152 156 154 161 153 149 150 154 156 153 152 159 188 214 232 232 241 237 235 233 242 245 249 253 248 248 246 241 248 247 248 246 255 250 214 214 222 221 221
152 151 153 148 152 151 148 149 145 139 143 149 147 136 131 144 159 180 348 45 243 242 255 266 231 274 264 269 257 237 242 241 244 248 250 249 247 252 253 207 212 220 222
150 149 152 150 152 149 149 150 146 139 144 140 136 125 139 137 133 139 136 107 275 262 275 302 290 285 285 286 281 272 255 250 241 240 245 247 246 247 249 250 224 217 215
151 154 158 157 152 156 158 167 160 152 147 140 132 120 130 121 114 114 99 112 296 16 340 312 289 257 274 299 277 264 243 236 242 246 244 252 247 250 255 254 252 247 215
156 158 157 156 152 162 149 146 139 132 143 126 117 110 112 109 121 141 65 98 67 82 79 338 302 293 289 299 300 290 270 224 205 221 227 232 252 253 251 248 248 244 249
158 159 152 147 147 149 151 151 141 148 160 152 143 130 108 108 105 72 82 51 45 335 58 3 315 307 308 293 309 308 304 313 328 180 214 237 264 273 266 270 256 252 246
158 151 144 145 144 146 157 157 166 177 167 137 144 121 121 110 108 106 90 72 30 26 52 313 40 318 301 299 257 285 309 331 306 293 214 194 231 260 282 279 278 263 251
158 152 148 144 144 146 147 147 172 166 142 139 140 125 138 119 117 107 93 75 50 29 34 13 11 328 312 315 316 305 290 263 264 285 290 292 273 267 287 285 284 278 272
157 154 150 145 144 146 150 153 165 146 146 149 157 149 168 143 133 109 101 75 51 38 42 5 338 322 335 334 316 308 301 301 305 299 295 290 290 287 291 291 277 276 278